User: anonymous   Login
Location: Bonny Doon Airfield
(37.0704°N, 122.1252°W)
Time: 16:46:41
(UTC-07:00)
Language:

BREEZE M DEB (TANK) - Orbit

View from above orbital plane
View from above orbital plane
View from above satellite
View from above satellite

Ground track
Ground track

The orbit data is extracted from the following two-line orbital elements,

1 33437U 08057B   16175.13286472 +.00000421 +00000-0 +12340-3 0  9993
2 33437 049.5666 193.2195 4989076 174.6231 194.0296 05.59548361153731
Epoch (UTC): 23 June 2016 03:11:19
Eccentricity: 0.4989076
inclination: 49.5666°
perigee height: 337 km
apogee height: 13710 km
right ascension of ascending node: 193.2195°
argument of perigee: 174.6231°
revolutions per day: 5.59548361
mean anomaly at epoch: 194.0296°
orbit number at epoch: 15373

The dashed part of the orbit path shows where the satellite is in the earth's shadow,  

DLR